Regional Weather Roundup
Issued by NWS Charleston, SC

Current Version | Previous Version | Text Only | Print | Product List | Glossary Off
Versions: 1 2 3 4 5 6 7 8 9 10 11 12 13 14 15 16 17 18 19 20 21 22 23 24 25 26 27 28 29 30 31 32 33 34 35 36 37 38 39 40 41 42 43 44 45 46 47 48 49 50

000
ASUS42 KCHS 270425
RWRCHS

REGIONAL WEATHER ROUNDUP
NATIONAL WEATHER SERVICE CHARLESTON SC
1100 PM EST FRI DEC 26 2014

NOTE: "FAIR" INDICATES FEW OR NO CLOUDS BELOW 12,000 FEET WITH NO
SIGNIFICANT WEATHER AND/OR OBSTRUCTIONS TO VISIBILITY.

NOT ALL STATIONS ARE QUALITY CONTROLLED BY THE NATIONAL
WEATHER SERVICE. USE DATA WITH CAUTION...ESPECIALLY
DEWPOINT OBSERVATIONS.

SCZ027-030-031-034>040-042>050-270500-
...SOUTHEAST SOUTH CAROLINA...

CITY           SKY/WX    TMP DP  RH WIND       PRES   REMARKS
N CHARLESTON   CLEAR     47  44  90 CALM      30.32S
WATERFRONT PRK   N/A     52 N/A N/A N5          N/A
MOUNT PLEASANT FAIR      43  43 100 CALM      30.32S
PINOPOLIS        N/A     52  46  82 VRB2      30.24R
MONCKS CORNER  FAIR      43  41  93 CALM      30.32S FOG
SUMMERVILLE    FAIR      41  41 100 CALM      30.32F
BEAUFORT MCAS  CLEAR     45  43  93 CALM      30.31S
BEAUFORT ARPT  FAIR      46  46 100 CALM      30.31S FOG
HILTON HEAD IS CLEAR     46  46 100 CALM      30.32F
WALTERBORO     CLEAR     37 N/A N/A CALM      30.33S
ALLENDALE      FAIR      39  39 100 CALM      30.33R

...SOUTHERN MIDLANDS AND PEE DEE...

CITY           SKY/WX    TMP DP  RH WIND       PRES   REMARKS
GEORGETOWN     NOT AVBL
KINGSTREE      NOT AVBL
ORANGEBURG     CLEAR     41  38  89 CALM      30.34R
BARNWELL         N/A     37  37 100 CALM      30.34S
AIKEN          FAIR      36  36 100 CALM      30.36S
MANNING        FAIR      37 N/A N/A CALM      30.34R
COLUMBIA       CLEAR     38  34  85 CALM      30.33S
SUMTER         CLEAR     39  35  86 CALM      30.33R
FLORENCE       CLEAR     40  36  86 CALM      30.33R
MYRTLE BEACH   CLEAR     43  39  87 CALM      30.33F
N MYRTLE BEACH PTCLDY    39  38  96 CALM      30.32F FOG

$$

GAZ063-065-086>088-099>101-113>116-118-119-134>141-150-270500-
...SOUTHEAST GEORGIA...

CITY           SKY/WX    TMP DP  RH WIND       PRES   REMARKS
SAVANNAH ARPT  MOCLDY    45  43  93 CALM      30.32S FOG
HUNTER AAF     CLEAR     46  46 100 CALM      30.29S FOG
FORT STEWART   CLEAR     44  43  94 CALM      30.30R
STATESBORO     CLEAR     37  37 100 CALM      30.32S
SYLVANIA       CLEAR     40  40 100 CALM      30.33S
CLAXTON        FAIR      41  41 100 CALM      30.32S

...CSRA...CENTRAL AND FAR SOUTHEAST GEORGIA...

CITY           SKY/WX    TMP DP  RH WIND       PRES   REMARKS
THOMSON        CLEAR     36  36 100 CALM      30.36F
AUGUSTA-BUSH   CLEAR     35  33  92 CALM      30.35R
AUGUSTA-DANIEL CLEAR     48  40  73 CALM      30.34R
SWAINSBORO     FAIR      41  41 100 CALM      30.32F
VIDALIA        CLEAR     43  41  93 CALM      30.31F
EASTMAN        FAIR      38  38 100 CALM      30.34F FOG
HAZLEHURST     FAIR      45  45 100 CALM      30.30S
ALMA           CLEAR     42  41  96 CALM      30.31R
WAYCROSS       CLEAR     48  47  99 CALM      30.30S
JESUP          FAIR      48  46  93 CALM      30.31S
BAXLEY         FAIR      45  43  93 CALM      30.30F
BRUNSWICK      CLEAR     52  48  87 N3        30.30F
SAINT SIMONS   CLOUDY    57  49  74 N8        30.29S

$$

SCZ027-028-034-036>038-045-046-048>050-GAZ119-141-270500-
...LAKE AND SUPPLEMENTAL COASTAL OBSERVATIONS...

STATION/POSITION TIME  TEMP    WIND        PRES    WAVE   SWELL
                       AIR SEA DIR/SP/G            HT/PER HT/PER/DIR
                 (UTC) (F)     (DEG/KT/KT) (MB)    (FT/S) (FT/S/D)
UPR LAKE MARION  NOT AVBL
WINYAH BAY       0400   44     320/  3     1026.0S
LAKE MURRAY      0400   43        CALM     1026.4S
ACE BASIN NERRS  0400   45        CALM     1026.0S
FORT PULASKI     0400   54 56   20/  4/  4 1026.6F
SAPELO ISLAND    0400   49      20/  5     1026.0S

$$

ANZ835-935-AMZ111-154-330-350-352-354-370-450-454-472-270500-
...C-MAN AND BUOY OBSERVATIONS...

STATION/POSITION TIME  TEMP    WIND        PRES    WAVE   SWELL
                       AIR SEA DIR/SP/G            HT/PER HT/PER/DIR
                 (UTC) (F)     (DEG/KT/KT) (MB)    (FT/S) (FT/S/D)
BUOY 41004       0400   63 74   30/ 10/ 14 1025.6F   3/ 7   2/ 7
BUOY 41008       0400   59 59   40/ 12/ 12 1025.3F   3/ 4   2/110/ 7
FOLLY BEACH CMAN 0400   54      30/  5/  6 1026.9F
CAPERS NEARSHORE 0300   55      60/  6/  8   N/A
FRIPP NEARSHORE  NOT AVBL


STATION/POSITION TIME  TEMP    WIND        PRES    WAVE   SWELL
                       AIR SEA DIR/SP/G            HT/PER HT/PER/DIR
                 (UTC) (F)     (DEG/KT/KT) (MB)    (FT/S) (FT/S/D)
5E ST. MARYS GA  0400      61                N/A     3/ 5
FRYING PAN BUOY  0400   60 69   20/  6/  8 1027.4F   2/ 7   2/130/ 7
BUOY 41025       0400   55                 1027.1S   3/ 8
CAPE LOOKOUT NC  0400   53      40/  2/  2 1026.8F
BUOY 41002       0311   67 74   70/ 10/ 12 1026.2S   3/13   3/ 60/13
BUOY 41010       0400   73 76   70/ 10/ 14 1023.6S   3/ 8   2/ 90/ 8
ST AUGUSTINE FL  0400   62     360/ 13/ 15 1025.1F


$$


USA.gov is the U.S. government's official web portal to all federal, state and local government web resources and services.